Regional Weather Roundup
Issued by NWS

Home | Current Version | Previous Version | Graphics & Text | Print | Product List | Glossary On
Versions: 1 2 3 4 5 6 7 8 9 10 11 12 13 14 15 16 17 18 19 20 21 22 23 24 25 26 27 28 29 30 31 32 33 34 35 36 37 38 39 40 41 42 43 44 45 46 47 48 49 50
000
ASUS43 KDTX 061710
RWRMI
MICHIGAN HOURLY REGIONAL WEATHER ROUNDUP
NATIONAL WEATHER SERVICE DETROIT/PONTIAC MI
1200 PM EST TUE DEC 06 2016

NOTE: "FAIR" INDICATES FEW OR NO CLOUDS BELOW 12,000 FEET WITH NO
SIGNIFICANT WEATHER AND/OR OBSTRUCTION TO VISIBILITY.

MIZ047>049-052>055-059>063-066>070-074>076-081>083-061800-
SOUTHEAST LOWER MICHIGAN

CITY           SKY/WX    TMP DP  RH WIND       PRES   REMARKS
ADRIAN         CLOUDY    37  34  89 E6        29.74F WCI  32
ALMA           CLOUDY    35  32  91 NE9       29.78F FOG     WCI  27
ANN ARBOR      LGT RAIN  39  34  82 E10       29.75F WCI  32
BAD AXE        MOSUNNY   39  33  79 E8        29.81F WCI  33
CARO           MOSUNNY   38  33  82 SE14G20   29.78F WCI  30
DETROIT CITY   CLOUDY    41  36  82 E9        29.78F
DETROIT        CLOUDY    41  35  79 VRB6      29.77F
FLINT          CLOUDY    38  34  85 E15       29.77F WCI  29
GROSSE ILE     CLOUDY    41  34  75 E7        29.75F
HILLSDALE      LGT RAIN  34  32  93 E12G23    29.69F WCI  25
HOWELL         CLOUDY    38  33  84 E12       29.74F WCI  30

CITY           SKY/WX    TMP DP  RH WIND       PRES   REMARKS
JACKSON        CLOUDY    39  33  79 E13       29.72F WCI  31
LAMBERTVILLE   LGT RAIN  40  33  76 E6        29.73F
LANSING        CLOUDY    38  32  79 E10       29.75F WCI  31
LAPEER         NOT AVBL
MASON          CLOUDY    37  34  89 E9        29.74F WCI  30
MONROE         CLOUDY    41  34  75 E13G18    29.74F
MT. CLEMENS    CLOUDY    40  36  86 E12       29.76F WCI  32
PONTIAC        CLOUDY    37  33  85 E9        29.76F WCI  30
PORT HOPE        N/A     40  33  76 SE24      29.81F WCI  29
PORT HURON     PTSUNNY   37  32  81 E13G22    29.80F WCI  29
TRI CITIES     CLOUDY    37  34  89 E10       29.80F WCI  30
MIDLAND        FAIR      37  32  81 E8        29.79F WCI  31
TROY           CLOUDY    40  34  80 E8        29.79F WCI  34
SAGINAW HB     CLOUDY    37  32  81 E7        29.79F WCI  32
$$
MIZ043>046-050>051-056>058-064>065-071>073-077>080-061800-
SOUTHWEST LOWER MICHIGAN

CITY           SKY/WX    TMP DP  RH WIND       PRES   REMARKS
BATTLE CREEK   CLOUDY    37  33  85 E10       29.72F WCI  30
BENTON HARBOR  CLOUDY    37  30  75 VRB3      29.75S HAZE
BIG RAPIDS     CLOUDY    36  31  80 E9        29.76F WCI  29
COLDWATER      PTSUNNY   39  32  77 CALM      29.73R
FREMONT        PTSUNNY   36  30  78 SE7       29.77R WCI  31
HOLLAND        PTSUNNY   36  32  85 E10       29.75F WCI  28
GRAND RAPIDS   CLOUDY    34  30  85 E10       29.74F FOG     WCI  26
IONIA          PTSUNNY   32  31  96 NE6       29.75F FOG     WCI  27
KALAMAZOO      CLOUDY    38  32  79 CALM      29.73F
LUDINGTON      MOSUNNY   39  32  76 SE10G16   29.77F WCI  32
MARSHALL       CLOUDY    38  34  85 E7        29.73R WCI  32
MOUNT PLEASANT CLOUDY    36  32  87 E5        29.78F WCI  32
MUSKEGON       CLOUDY    39  32  76 E8        29.76F WCI  33
SOUTH HAVEN    CLOUDY    36  32  87 SE6       29.74S WCI  31
$$
MIZ016>042-061800-
NORTHERN LOWER MICHIGAN

CITY           SKY/WX    TMP DP  RH WIND       PRES   REMARKS
ALPENA         CLOUDY    40  31  70 SE12      29.84F WCI  33
BEAVER ISLAND  MOSUNNY   40  32  75 SE9G21    29.79F WCI  34
BELLAIRE       CLOUDY    38  32  79 SE7       29.80F WCI  33
CADILLAC       CLOUDY    34  31  88 E10G20    29.74F WCI  26
CHARLEVOIX     MOSUNNY   39  31  73 SE17G23   29.81F WCI  30
FRANKFORT      MOSUNNY   38  31  75 SE9       29.76F WCI  32
GAYLORD        PTSUNNY   36  30  79 SE12G18   29.79F WCI  28
GRAYLING       PTSUNNY   36  32  87 SE12      29.81F WCI  27
HARBOR SPRINGS PTSUNNY   39  31  74 SE9       29.81F WCI  32
HOUGHTON LAKE  CLOUDY    36  30  79 E12       29.80F WCI  28
MANISTEE       MOSUNNY   40  31  70 SE8       29.76F WCI  34
OSCODA         CLOUDY    42  32  67 MISG      29.83F
PELLSTON       CLOUDY    38  31  76 SE9       29.82F WCI  31
ROGERS CITY    MOSUNNY   40  34  81 SE7       29.84F WCI  35
TRAVERSE CITY  PTSUNNY   39  31  72 SE9G17    29.76F WCI  33
$$
MIZ007>008-015-061800-
EASTERN UPPER MICHIGAN

CITY           SKY/WX    TMP DP  RH WIND       PRES   REMARKS
KINROSS        CLOUDY    38  35  89 SE10      29.84F WCI  31
MACKINAC ISLAN CLOUDY    37  33  84 SE5       29.82F WCI  33
NEWBERRY       PTSUNNY   36  32  87 SE16      29.79F WCI  26
S. S. MARIE    CLOUDY    38  34  85 E8        29.84F WCI  32
MUNISING         N/A     40  34  79 S14G23    29.71F WCI  32
$$
MIZ004>006-011>014-085-061800-
CENTRAL UPPER MICHIGAN

CITY           SKY/WX    TMP DP  RH WIND       PRES   REMARKS
MANISTIQUE     PTSUNNY   40  35  80 SE15G24   29.75F WCI  32
ESCANABA       CLOUDY    40  33  76 S13G20    29.73F WCI  32
MENOMINEE      CLOUDY    39  32  76 S13G22    29.72F WCI  31
SAWYER-GWINN   CLOUDY    36  32  87 S14       29.68F WCI  27
$$
MIZ001>003-009>011-084-061800-
WESTERN UPPER MICHIGAN

CITY           SKY/WX    TMP DP  RH WIND       PRES   REMARKS
IRON MOUNTAIN  CLOUDY    38  31  76 S14G23    29.64F WCI  30
HOUGHTON       CLOUDY    38  30  73 S10       29.60F WCI  31
COPPER HARBOR    N/A     41  33  73 S22G33    29.61F
IRONWOOD       SNOW      31  30  96 SW13      29.57F VSB 1/2 WCI  21
$$

ABBREVIATIONS USED IN REMARKS
   TC - TEMPERATURE IN CELSIUS
  WCI - WIND CHILL INDEX
   HX - HEAT INDEX
  VSB - VISIBILITY





USA.gov is the U.S. government's official web portal to all federal, state and local government web resources and services.